Regional Weather Roundup
Issued by NWS

Home | Current Version | Previous Version | Graphics & Text | Print | Product List | Glossary Off
Versions: 1 2 3 4 5 6 7 8 9 10 11 12 13 14 15 16 17 18 19 20 21 22 23 24 25 26 27 28 29 30 31 32 33 34 35 36 37 38 39 40 41 42 43 44 45 46 47 48 49 50

000
ASUS43 KDMX 030503
RWRIA

WEATHER ROUNDUP FOR IOWA
NATIONAL WEATHER SERVICE DES MOINES IA
1200 AM CDT TUE MAY 03 2016

NOTE: "FAIR" INDICATES FEW OR NO CLOUDS BELOW 12,000 FEET WITH NO
SIGNIFICANT WEATHER AND/OR OBSTRUCTIONS TO VISIBILITY.

* - THESE STATIONS ARE NOT NWS STATIONS...THUS NOT UNDER NWS
QUALITY CONTROL.  THEY ALSO DO NOT REPORT WEATHER SUCH
AS PRECIPITATION OR FOG.

IAZ001>003-012>014-020>022-031>034-043>046-030600-
   NORTHWEST IOWA

CITY           SKY/WX    TMP DP  RH WIND       PRES   REMARKS
CARROLL *      PTCLDY    46  43  87 CALM      30.05S
CHEROKEE *     CLEAR     43  43 100 CALM      30.05S
DENISON *      CLEAR     45  41  87 E3        30.03S
LE MARS *      CLEAR     45  43  93 CALM      30.06S
ORANGE CITY *  CLEAR     50  39  66 CALM      30.04F
SHELDON *      CLEAR     43  41  93 CALM      30.03F
SIOUX CITY     MOCLDY    52  44  74 E3        30.04S
SPENCER        CLEAR     44  41  89 W5        30.04S
STORM LAKE *   CLEAR     54  34  47 W5        30.05S
$$

IAZ055>058-069>071-079>083-090>094-030600-
   SOUTHWEST IOWA

CITY           SKY/WX    TMP DP  RH WIND       PRES   REMARKS
ATLANTIC *     CLEAR     45  43  93 CALM      30.05S
AUDUBON *      CLEAR     43  39  87 CALM      30.06S
CLARINDA *       N/A    N/A N/A N/A MISG        N/A
COUNCIL BLFS * CLEAR     54  39  58 S5        30.05S
CRESTON *      CLEAR     48  41  76 S5        30.07S
HARLAN  *      CLEAR     45  41  87 CALM      30.08S
LAMONI         CLEAR     50  43  77 E3        30.05S
SHENANDOAH *   CLEAR     50  48  93 CALM      30.06S
$$

IAZ047>049-059>061-072>074-084-030600-
   CENTRAL IOWA

CITY           SKY/WX    TMP DP  RH WIND       PRES   REMARKS
AMES           CLEAR     43  41  93 CALM      30.05S
ANKENY *       CLEAR     43  43 100 CALM      30.05S
BOONE *        CLEAR     48  45  87 CALM      30.04S
CHARITON *     CLEAR     46  45  93 CALM      30.05S
DES MOINES     CLEAR     48  40  73 CALM      30.05S
GRINNELL*      CLEAR     41  39  93 W5        30.05F
KNOXVILLE *    CLEAR     48  43  81 SW5       30.04S
MARSHALLTOWN   PTCLDY    46  41  82 CALM      30.04F
NEWTON *       CLEAR     48  45  87 CALM      30.05S
PELLA *        CLEAR     46  43  91 CALM      30.06S
$$

IAZ004>006-015-016-023>025-035-036-030600-
   NORTH CENTRAL IOWA

CITY           SKY/WX    TMP DP  RH WIND       PRES   REMARKS
ALGONA *       CLEAR     48  43  81 S6        30.04F
CLARION *      CLEAR     46  43  87 S7        30.05S
ESTHERVILLE    CLEAR     48  40  73 SW5       30.03F
FORT DODGE *   CLEAR     45  37  76 CALM      30.05S
MASON CITY     PTCLDY    45  41  86 S6        30.05S
FOREST CITY *    N/A     41  41 100 CALM      30.04S
WEBSTER CITY * CLEAR     46  43  87 S8        30.03S
IOWA FALLS *     N/A     48  43  81 SW7       30.06S
$$

IAZ007>011-017>019-026>030-037>042-050>054-066-030600-
   NORTHEAST IOWA

CITY           SKY/WX    TMP DP  RH WIND       PRES   REMARKS
CEDAR RAPIDS   MOCLDY    45  42  89 W7        30.03S
CHARLES CITY * MOCLDY    50  41  71 CALM      30.04S
CLINTON *      MOCLDY    48  43  82 NW5       30.03S
DECORAH *      PTCLDY    50  39  66 CALM      30.01F
DUBUQUE        CLEAR     46  39  76 SW5       30.02F
MONTICELLO *   CLEAR     45  43  93 CALM      30.02F
OELWEIN *      PTCLDY    46  41  81 W8        30.04S
WATERLOO       CLEAR     44  40  85 W3        30.03F
$$

IAZ064-065-067-068-078-030600-
   EAST CENTRAL IOWA

CITY           SKY/WX    TMP DP  RH WIND       PRES   REMARKS
DAVENPORT      PTCLDY    46  41  82 CALM      30.03S
IOWA CITY      CLOUDY    46  42  86 CALM      30.05S
MT. PLEASANT * CLOUDY    54  48  82 W3        30.04S
MUSCATINE *    PTCLDY    50  45  81 CALM      30.04S
QUAD CITIES    PTCLDY    47  43  86 CALM      30.02S
$$

IAZ062-063-075>077-085>089-095>099-030600-
   SOUTHEAST IOWA

CITY           SKY/WX    TMP DP  RH WIND       PRES   REMARKS
BURLINGTON     CLOUDY    51  47  86 NW5       30.03S
FAIRFIELD *    CLOUDY    48  45  87 NW6       30.04F
FORT MADISON * CLOUDY    52  46  82 NW3       30.04S
KEOKUK *       CLOUDY    52  48  87 NW3       30.03S
OSKALOOSA *      N/A     45  43  92 W3        30.05F
OTTUMWA        CLEAR     44  43  96 NW3       30.05S
WASHINGTON *   CLOUDY    50  48  93 W6        30.05F
$$

ABBREVIATIONS USED IN REMARKS
   TC - TEMPERATURES IN CELSIUS
  WCI - WIND CHILL INDEX
   HX - HEAT INDEX
  VSB - VISIBILITY
$$




USA.gov is the U.S. government's official web portal to all federal, state and local government web resources and services.